Tracking 29892 objects as of 21-Nov-2024
HD Live streaming from Space Station
objects crossing your sky now

BILSAT 1

Track BILSAT 1 now!
10-day predictions
BILSAT 1 is classified as:


NORAD ID: 27943
Int'l Code: 2003-042E
Perigee: 672.8 km
Apogee: 688.0 km
Inclination: 98.3 °
Period: 98.2 minutes
Semi major axis: 7051 km
RCS: 0.6138 m2 (medium)
Launch date: September 27, 2003
Source: Turkey (TURK)
Launch site: PLESETSK MISSILE AND SPACE COMPLEX (PKMTR)

Part of Disaster Monitoring Constellation; five countries share all data.
Your satellite tracking list
Your tracking list is empty




NASA's NSSDC Master Catalog

Two Line Element Set (TLE):
1 27943U 03042E   24325.87732822  .00000911  00000-0  17456-3 0  9996
2 27943  98.3310 113.7608 0010799 355.7995   4.3116 14.66191237130140
Source of the keplerian elements: AFSPC